Tonopah, NV

6:56 AM PST on November 19, 2017 (GMT -0800)
Tonopah

Weather History for KTPH - October, 2013

Change the Weather History Date:

Thursday, October 10, 2013

  Actual Average Record
Temperature  
Mean Temperature 49 °F 55 °F  
Max Temperature 60 °F 71 °F 84 °F (1965)
Min Temperature 38 °F 40 °F 13 °F (2000)
Degree Days  
Heating Degree Days 16 10  
Month to date heating degree days 126 83  
Since 1 July heating degree days 223 174  
Cooling Degree Days 0 0  
Month to date cooling degree days 0 0  
Year to date cooling degree days 1042 781  
Moisture  
Dew Point 31 °F    
Average Humidity 54    
Maximum Humidity 79    
Minimum Humidity 28    
Precipitation  
Precipitation 0.01 in 0.01 in 0.51 in (2000)
Month to date precipitation 0.04 0.11  
Year to date precipitation 4.07 4.26  
Sea Level Pressure  
Sea Level Pressure 29.81 in    
Wind  
Wind Speed 16 mph (NW)    
Max Wind Speed 31 mph    
Max Gust Speed 38 mph    
Visibility 10 miles    
Events Rain    
T = Trace of Precipitation, MM = Missing Value Source: NWS Daily Summary

Daily Weather History Graph

Daily Weather History Graph

Search for Another Location

Airport or City:

Trip Planner

Search our weather history database for the weather conditions in past years. The results will help you decide how hot, cold, wet, or windy it might be!

Date:

Astronomy

Oct. 10, 2013 Rise Set
Actual Time 6:52 AM PDT 6:17 PM PDT
Civil Twilight 6:26 AM PDT 6:43 PM PDT
Nautical Twilight 5:55 AM PDT 7:14 PM PDT
Astronomical Twilight 5:25 AM PDT 7:44 PM PDT
Moon 12:44 PM PDT (10/10) 11:03 PM PDT (10/10)
Length of Visible Light 12h 17m
Length of Day
11h 24m
Waxing Crescent, 37% of the Moon is Illuminated
Oct 10
Waxing Crescent
Oct 11
First Quarter
Oct 18
Full
Oct 26
Last Quarter
Nov 3
New

Hourly Weather History & Observations

Time (PDT) Temp. Windchill Dew Point Humidity Pressure Visibility Wind Dir Wind Speed Gust Speed Precip Events Conditions
12:56 AM 42.1 °F 39.2 °F 35.1 °F 76% 29.69 in 10.0 mi NNW 4.6 mph - N/A   Overcast
1:56 AM 42.1 °F 39.2 °F 35.1 °F 76% 29.72 in 10.0 mi NNW 4.6 mph - N/A   Mostly Cloudy
2:56 AM 43.0 °F 37.7 °F 36.0 °F 76% 29.71 in 10.0 mi North 9.2 mph - 0.00 in   Overcast
3:56 AM 42.1 °F 35.7 °F 35.1 °F 76% 29.71 in 10.0 mi NNW 11.5 mph - 0.00 in Rain Light Rain
4:56 AM 42.1 °F 36.1 °F 35.1 °F 76% 29.72 in 10.0 mi NNW 10.4 mph - 0.01 in   Overcast
5:56 AM 41.0 °F 33.9 °F 35.1 °F 79% 29.74 in 10.0 mi NNW 12.7 mph - N/A   Scattered Clouds
6:56 AM 42.1 °F 33.9 °F 34.0 °F 73% 29.76 in 10.0 mi NNW 17.3 mph 29.9 mph N/A   Mostly Cloudy
7:56 AM 43.0 °F 34.0 °F 33.1 °F 68% 29.76 in 10.0 mi NNW 21.9 mph 29.9 mph N/A   Clear
8:56 AM 45.0 °F 35.4 °F 34.0 °F 65% 29.79 in 10.0 mi NW 28.8 mph 36.8 mph N/A   Clear
9:56 AM 48.0 °F - 33.1 °F 56% 29.81 in 10.0 mi NW 24.2 mph 33.4 mph N/A   Clear
10:56 AM 51.1 °F - 32.0 °F 48% 29.81 in 10.0 mi NW 24.2 mph 32.2 mph N/A   Clear
11:56 AM 55.0 °F - 32.0 °F 42% 29.81 in 10.0 mi WNW 20.7 mph 25.3 mph N/A   Clear
12:56 PM 57.9 °F - 30.0 °F 35% 29.80 in 10.0 mi NW 19.6 mph 27.6 mph N/A   Clear
1:56 PM 57.9 °F - 28.9 °F 33% 29.80 in 10.0 mi NNW 15.0 mph 26.5 mph N/A   Clear
2:56 PM 59.0 °F - 27.0 °F 29% 29.79 in 10.0 mi NW 19.6 mph 26.5 mph N/A   Scattered Clouds
3:56 PM 59.0 °F - 26.1 °F 28% 29.81 in 10.0 mi NW 23.0 mph 27.6 mph N/A   Clear
4:56 PM 57.9 °F - 26.1 °F 30% 29.83 in 10.0 mi NNW 24.2 mph 33.4 mph N/A   Clear
5:56 PM 55.0 °F - 26.1 °F 33% 29.85 in 10.0 mi NW 23.0 mph - N/A   Clear
6:56 PM 52.0 °F - 28.0 °F 40% 29.88 in 10.0 mi NW 17.3 mph - N/A   Clear
7:56 PM 50.0 °F - 28.9 °F 44% 29.89 in 10.0 mi WNW 15.0 mph - N/A   Clear
8:56 PM 51.1 °F - 26.1 °F 38% 29.91 in 10.0 mi NW 12.7 mph - N/A   Clear
9:56 PM 45.0 °F 43.5 °F 28.9 °F 53% 29.94 in 10.0 mi NNE 3.5 mph - N/A   Clear
10:56 PM 45.0 °F 42.6 °F 27.0 °F 49% 29.95 in 10.0 mi WNW 4.6 mph - N/A   Clear
11:56 PM 44.1 °F 40.1 °F 26.1 °F 49% 29.95 in 10.0 mi NNW 6.9 mph - N/A   Clear